Chicago Executive, IL

2:37 PM CST on December 05, 2019 (GMT -0600)
Chicago Executive

Weather History for KPWK - September, 2019

Change the Weather History Date:

Thursday, September 12, 2019

  Actual Average Record
Temperature  
Mean Temperature 70 °F 66 °F  
Max Temperature 77 °F 76 °F 90 °F (2005)
Min Temperature 64 °F 56 °F 45 °F (2007)
Degree Days  
Heating Degree Days 0 2  
Month to date heating degree days 2 16  
Since 1 July heating degree days 2 26  
Cooling Degree Days 6 3  
Month to date cooling degree days 69 50  
Year to date cooling degree days 876 747  
Growing Degree Days 20 (Base 50)    
Moisture  
Dew Point 65 °F    
Average Humidity 87    
Maximum Humidity 94    
Minimum Humidity 74    
Precipitation  
Precipitation 1.16 in 0.10 in 0.28 in (1999)
Month to date precipitation 2.00 1.29  
Year to date precipitation 31.32 23.77  
Sea Level Pressure  
Sea Level Pressure 30.10 in    
Wind  
Wind Speed 5 mph ()    
Max Wind Speed 14 mph    
Max Gust Speed 19 mph    
Visibility 6.6 miles    
Events Rain , Thunderstorm    
T = Trace of Precipitation, MM = Missing Value Source: Averaged Metar Reports

Daily Weather History Graph

Daily Weather History Graph

Search for Another Location

Airport or City:

Astronomy

Sep. 12, 2019 Rise Set
Actual Time 6:28 AM CDT 7:06 PM CDT
Civil Twilight 6:00 AM CDT 7:34 PM CDT
Nautical Twilight 5:26 AM CDT 8:08 PM CDT
Astronomical Twilight 4:52 AM CDT 8:42 PM CDT
Moon 6:53 PM CDT (9/12) 4:44 AM CDT (9/12)
Length of Visible Light 13h 34m
Length of Day
12h 38m
Waxing Gibbous, 98% of the Moon is Illuminated
Sep 12
Waxing Gibbous
Sep 13
Full
Sep 21
Last Quarter
Sep 28
New
Oct 5
First Quarter

Hourly Weather History & Observations

Time (CDT) Temp. Dew Point Humidity Pressure Visibility Wind Dir Wind Speed Gust Speed Precip Events Conditions
12:07 AM 70.0 °F 66.0 °F 87% 30.08 in 10.0 mi NE 5.8 mph - 0.00 in Rain , Thunderstorm Light Rain
12:22 AM 70.0 °F 66.0 °F 87% 30.08 in 10.0 mi NNE 3.5 mph - 0.00 in   Overcast
12:33 AM 70.0 °F 66.0 °F 87% 30.07 in 10.0 mi Calm Calm - 0.00 in Rain , Thunderstorm Light Rain
12:48 AM 69.8 °F 66.2 °F 88% 30.08 in 10.0 mi North 3.5 mph - 0.00 in Rain Light Rain
12:52 AM 70.0 °F 66.0 °F 87% 30.07 in 10.0 mi North 3.5 mph - 0.00 in Rain , Thunderstorm Light Rain
1:07 AM 68.0 °F 64.9 °F 90% 30.10 in 10.0 mi NE 8.1 mph - 0.01 in Rain Light Rain
1:19 AM 66.0 °F 62.1 °F 87% 30.10 in 10.0 mi NE 9.2 mph - 0.01 in Rain Light Rain
1:29 AM 64.9 °F 62.1 °F 90% 30.09 in 10.0 mi NE 9.2 mph - 0.01 in   Overcast
1:38 AM 64.9 °F 62.1 °F 90% 30.07 in 10.0 mi ENE 8.1 mph - 0.01 in Thunderstorm Mostly Cloudy
1:47 AM 64.4 °F 62.6 °F 94% 30.07 in 6.0 mi NNE 8.1 mph - 0.04 in Rain , Thunderstorm Thunderstorms and Rain
1:52 AM 64.9 °F 62.1 °F 90% 30.07 in 4.0 mi NNE 4.6 mph - 0.06 in Rain , Thunderstorm Thunderstorms and Rain
2:06 AM 64.9 °F 62.1 °F 90% 30.09 in 2.5 mi Variable 3.5 mph - 0.12 in Rain , Thunderstorm Light Rain
2:09 AM 64.9 °F 63.0 °F 93% 30.09 in 1.2 mi NNE 6.9 mph - 0.25 in Rain , Thunderstorm Heavy Thunderstorms and Rain
2:13 AM 66.0 °F 63.0 °F 90% 30.08 in 0.8 mi ENE 8.1 mph - 0.48 in Rain , Thunderstorm Heavy Thunderstorms and Rain
2:17 AM 66.0 °F 64.0 °F 93% 30.09 in 1.0 mi SE 8.1 mph - 0.54 in Rain , Thunderstorm Heavy Thunderstorms and Rain
2:22 AM 64.9 °F 63.0 °F 93% 30.10 in 2.0 mi SE 5.8 mph - 0.55 in Rain , Thunderstorm Light Thunderstorms and Rain
2:36 AM 66.0 °F 63.0 °F 90% 30.10 in 6.0 mi SE 5.8 mph - 0.59 in Rain , Thunderstorm Thunderstorms and Rain
2:40 AM 66.0 °F 63.0 °F 90% 30.09 in 4.0 mi SE 6.9 mph - 0.62 in Rain , Thunderstorm Rain
2:52 AM 66.0 °F 63.0 °F 90% 30.12 in 4.0 mi North - - 0.69 in Rain , Thunderstorm Light Rain
3:13 AM 66.9 °F 63.0 °F 87% 30.14 in 1.8 mi North 9.2 mph - 0.15 in Rain , Thunderstorm Heavy Rain
3:28 AM 66.0 °F 63.0 °F 90% 30.11 in 2.5 mi SE 4.6 mph - 0.40 in Rain , Thunderstorm Heavy Rain
3:34 AM 66.0 °F 63.0 °F 90% 30.11 in 4.0 mi SE 6.9 mph - 0.41 in Rain , Thunderstorm Light Thunderstorms and Rain
3:52 AM 66.0 °F 63.0 °F 90% 30.09 in 10.0 mi Calm Calm - 0.41 in Rain Light Rain
4:32 AM 66.0 °F 63.0 °F 90% 30.09 in 10.0 mi Calm Calm - 0.00 in   Scattered Clouds
4:52 AM 66.0 °F 63.0 °F 90% 30.08 in 10.0 mi South 5.8 mph - 0.00 in   Clear
5:00 AM 66.0 °F 64.0 °F 93% 30.09 in 10.0 mi Calm Calm - N/A   Partly Cloudy
5:23 AM 66.9 °F 64.0 °F 90% 30.10 in 10.0 mi North 5.8 mph - N/A   Mostly Cloudy
5:52 AM 66.0 °F 63.0 °F 90% 30.11 in 5.0 mi NE 5.8 mph - N/A   Overcast
6:14 AM 64.9 °F 63.0 °F 93% 30.12 in 1.8 mi NE 4.6 mph - N/A   Overcast
6:24 AM 64.9 °F 62.1 °F 90% 30.12 in 3.0 mi ENE 6.9 mph - N/A   Overcast
6:50 AM 64.4 °F 62.6 °F 94% 30.13 in 1.8 mi NE 4.6 mph - N/A   Overcast
6:52 AM 64.9 °F 62.1 °F 90% 30.12 in 1.2 mi NNE 4.6 mph - N/A   Overcast
6:54 AM 64.9 °F 62.1 °F 90% 30.13 in 0.8 mi NE 4.6 mph - N/A   Overcast
7:26 AM 64.0 °F 62.1 °F 93% 30.13 in 1.5 mi NE 5.8 mph - N/A   Overcast
7:30 AM 64.0 °F 62.1 °F 93% 30.13 in 3.0 mi NE 8.1 mph - N/A   Overcast
7:52 AM 64.0 °F 62.1 °F 93% 30.12 in 1.0 mi Variable 4.6 mph - N/A   Overcast
8:52 AM 64.9 °F 63.0 °F 93% 30.14 in 1.0 mi NNE 6.9 mph - N/A   Overcast
8:59 AM 64.9 °F 62.1 °F 90% 30.15 in 2.0 mi North 5.8 mph - N/A   Overcast
9:52 AM 66.9 °F 64.0 °F 90% 30.13 in 10.0 mi East 6.9 mph - N/A   Overcast
10:02 AM 68.0 °F 64.0 °F 87% 30.14 in 2.5 mi East 5.8 mph - N/A   Overcast
10:40 AM 69.1 °F 64.9 °F 87% 30.14 in 2.5 mi East 6.9 mph - N/A   Overcast
10:52 AM 70.0 °F 64.9 °F 84% 30.14 in 2.5 mi East 6.9 mph - N/A   Overcast
10:59 AM 70.0 °F 64.9 °F 84% 30.14 in 10.0 mi East 9.2 mph - N/A   Overcast
11:52 AM 71.1 °F 66.0 °F 84% 30.13 in 10.0 mi East 9.2 mph - N/A   Overcast
12:52 PM 73.9 °F 66.0 °F 76% 30.13 in 10.0 mi East 9.2 mph - N/A   Overcast
12:59 PM 73.9 °F 66.0 °F 76% 30.14 in 10.0 mi East 9.2 mph - N/A   Overcast
1:52 PM 73.9 °F 66.9 °F 79% 30.11 in 10.0 mi ESE 9.2 mph - N/A   Overcast
1:59 PM 75.0 °F 66.9 °F 76% 30.12 in 10.0 mi East 5.8 mph - N/A   Overcast
2:49 PM 77.0 °F 68.0 °F 74% 30.10 in 10.0 mi SE 5.8 mph - N/A   Scattered Clouds
2:52 PM 77.0 °F 68.0 °F 74% 30.09 in 10.0 mi ESE 4.6 mph - N/A   Scattered Clouds
3:52 PM 75.0 °F 68.0 °F 79% 30.08 in 10.0 mi East 5.8 mph - N/A   Clear
4:52 PM 75.0 °F 68.0 °F 79% 30.04 in 10.0 mi NE 3.5 mph - N/A   Clear
5:52 PM 75.9 °F 69.1 °F 79% 30.04 in 10.0 mi ENE 5.8 mph - N/A   Clear
6:52 PM 75.0 °F 69.1 °F 82% 30.05 in 10.0 mi NE 4.6 mph - N/A   Clear
7:52 PM 73.0 °F 68.0 °F 84% 30.03 in 10.0 mi ENE 3.5 mph - N/A   Partly Cloudy
8:52 PM 72.0 °F 68.0 °F 87% 30.04 in 10.0 mi Calm Calm - N/A   Clear
9:52 PM 72.0 °F 68.0 °F 87% 30.04 in 10.0 mi SSE 4.6 mph - N/A   Clear
10:52 PM 77.0 °F 68.0 °F 74% 30.00 in 10.0 mi SE 11.5 mph - N/A   Clear
11:52 PM 75.9 °F 69.1 °F 79% 29.99 in 10.0 mi SSE 9.2 mph - N/A   Partly Cloudy